Year,Month,Day,Hour,Minute,Value (Times are PST for windspeed in km/hr)
2017,05,22,00,00,3.10
2017,05,22,00,01,2.30
2017,05,22,00,02,1.90
2017,05,22,00,03,1.40
2017,05,22,00,04,0.20
2017,05,22,00,05,0.00
2017,05,22,00,06,0.00
2017,05,22,00,07,0.00
2017,05,22,00,08,0.10
2017,05,22,00,09,1.60
2017,05,22,00,10,0.90
2017,05,22,00,11,2.70
2017,05,22,00,12,1.90
2017,05,22,00,13,1.60
2017,05,22,00,14,1.40
2017,05,22,00,15,1.00
2017,05,22,00,16,0.70
2017,05,22,00,17,2.00
2017,05,22,00,18,2.00
2017,05,22,00,19,2.30
2017,05,22,00,20,1.00
2017,05,22,00,21,0.00
2017,05,22,00,22,0.00
2017,05,22,00,23,0.00
2017,05,22,00,24,0.00
2017,05,22,00,25,0.00
2017,05,22,00,26,0.00
2017,05,22,00,27,0.00
2017,05,22,00,28,0.00
2017,05,22,00,29,0.00
2017,05,22,00,30,0.00
2017,05,22,00,31,0.00
2017,05,22,00,32,0.00
2017,05,22,00,33,0.00
2017,05,22,00,34,0.00
2017,05,22,00,35,0.00
2017,05,22,00,36,0.20
2017,05,22,00,37,2.50
2017,05,22,00,38,3.00
2017,05,22,00,39,2.60
2017,05,22,00,40,2.30
2017,05,22,00,41,2.30
2017,05,22,00,42,1.10
2017,05,22,00,43,0.90
2017,05,22,00,44,1.60
2017,05,22,00,45,0.90
2017,05,22,00,46,2.30
2017,05,22,00,47,2.40
2017,05,22,00,48,2.30
2017,05,22,00,49,2.30
2017,05,22,00,50,1.00
2017,05,22,00,51,1.00
2017,05,22,00,52,0.80
2017,05,22,00,53,0.20
2017,05,22,00,54,0.00
2017,05,22,00,55,0.00
2017,05,22,00,56,0.00
2017,05,22,00,57,0.00
2017,05,22,00,58,0.00
2017,05,22,00,59,0.00
2017,05,22,01,00,0.00
2017,05,22,01,01,0.00
2017,05,22,01,02,0.00
2017,05,22,01,03,0.90
2017,05,22,01,04,0.60
2017,05,22,01,05,1.00
2017,05,22,01,06,0.70
2017,05,22,01,07,0.10
2017,05,22,01,08,0.00
2017,05,22,01,09,0.00
2017,05,22,01,10,0.00
2017,05,22,01,11,0.00
2017,05,22,01,12,0.00
2017,05,22,01,13,0.00
2017,05,22,01,14,0.00
2017,05,22,01,15,0.00
2017,05,22,01,16,0.00
2017,05,22,01,17,0.00
2017,05,22,01,18,0.00
2017,05,22,01,19,0.00
2017,05,22,01,20,0.00
2017,05,22,01,21,0.00
2017,05,22,01,22,0.00
2017,05,22,01,23,0.00
2017,05,22,01,24,0.60
2017,05,22,01,25,1.70
2017,05,22,01,26,1.10
2017,05,22,01,27,1.60
2017,05,22,01,28,1.00
2017,05,22,01,29,0.10
2017,05,22,01,30,0.20
2017,05,22,01,31,1.50
2017,05,22,01,32,2.80
2017,05,22,01,33,2.10
2017,05,22,01,34,2.80
2017,05,22,01,35,2.80
2017,05,22,01,36,2.30
2017,05,22,01,37,2.90
2017,05,22,01,38,3.70
2017,05,22,01,39,4.30
2017,05,22,01,40,3.70
2017,05,22,01,41,3.30
2017,05,22,01,42,3.30
2017,05,22,01,43,3.40
2017,05,22,01,44,3.90
2017,05,22,01,45,3.40
2017,05,22,01,46,3.90
2017,05,22,01,47,3.30
2017,05,22,01,48,3.20
2017,05,22,01,49,3.40
2017,05,22,01,50,4.50
2017,05,22,01,51,4.20
2017,05,22,01,52,4.40
2017,05,22,01,53,3.80
2017,05,22,01,54,3.90
2017,05,22,01,55,3.60
2017,05,22,01,56,2.40
2017,05,22,01,57,4.20
2017,05,22,01,58,4.60
2017,05,22,01,59,4.20
2017,05,22,02,00,4.60
2017,05,22,02,01,3.80
2017,05,22,02,02,3.90
2017,05,22,02,03,3.80
2017,05,22,02,04,3.30
2017,05,22,02,05,4.20
2017,05,22,02,06,3.70
2017,05,22,02,07,3.80
2017,05,22,02,08,3.40
2017,05,22,02,09,3.90
2017,05,22,02,10,4.30
2017,05,22,02,11,4.30
2017,05,22,02,12,4.70
2017,05,22,02,13,5.10
2017,05,22,02,14,4.10
2017,05,22,02,15,4.70
2017,05,22,02,16,4.60
2017,05,22,02,17,4.60
2017,05,22,02,18,5.00
2017,05,22,02,19,4.80
2017,05,22,02,20,4.30
2017,05,22,02,21,4.70
2017,05,22,02,22,4.40
2017,05,22,02,23,4.00
2017,05,22,02,24,2.90
2017,05,22,02,25,3.30
2017,05,22,02,26,2.60
2017,05,22,02,27,1.40
2017,05,22,02,28,2.10
2017,05,22,02,29,1.90
2017,05,22,02,30,2.60
2017,05,22,02,31,2.10
2017,05,22,02,32,1.90
2017,05,22,02,33,1.40
2017,05,22,02,34,3.10
2017,05,22,02,35,3.00
2017,05,22,02,36,1.70
2017,05,22,02,37,2.30
2017,05,22,02,38,3.20
2017,05,22,02,39,3.00
2017,05,22,02,40,3.30
2017,05,22,02,41,3.70
2017,05,22,02,42,3.40
2017,05,22,02,43,3.90
2017,05,22,02,44,3.80
2017,05,22,02,45,4.30
2017,05,22,02,46,4.30
2017,05,22,02,47,4.70
2017,05,22,02,48,3.40
2017,05,22,02,49,3.40
2017,05,22,02,50,3.10
2017,05,22,02,51,4.30
2017,05,22,02,52,3.40
2017,05,22,02,53,2.20
2017,05,22,02,54,3.20
2017,05,22,02,55,3.50
2017,05,22,02,56,2.00
2017,05,22,02,57,1.50
2017,05,22,02,58,2.10
2017,05,22,02,59,2.30
2017,05,22,03,00,2.60
2017,05,22,03,01,0.90
2017,05,22,03,02,2.30
2017,05,22,03,03,4.70
2017,05,22,03,04,3.30
2017,05,22,03,05,3.70
2017,05,22,03,06,3.90
2017,05,22,03,07,2.80
2017,05,22,03,08,1.90
2017,05,22,03,09,2.00
2017,05,22,03,10,2.50
2017,05,22,03,11,2.90
2017,05,22,03,12,1.60
2017,05,22,03,13,0.90
2017,05,22,03,14,0.20
2017,05,22,03,15,0.10
2017,05,22,03,16,0.00
2017,05,22,03,17,0.30
2017,05,22,03,18,0.00
2017,05,22,03,19,1.90
2017,05,22,03,20,3.30
2017,05,22,03,21,2.20
2017,05,22,03,22,2.80
2017,05,22,03,23,3.40
2017,05,22,03,24,3.30
2017,05,22,03,25,3.30
2017,05,22,03,26,3.30
2017,05,22,03,27,3.40
2017,05,22,03,28,3.90
2017,05,22,03,29,2.90
2017,05,22,03,30,3.90
2017,05,22,03,31,2.70
2017,05,22,03,32,3.10
2017,05,22,03,33,3.10
2017,05,22,03,34,3.10
2017,05,22,03,35,2.20
2017,05,22,03,36,2.00
2017,05,22,03,37,1.10
2017,05,22,03,38,2.30
2017,05,22,03,39,1.20
2017,05,22,03,40,1.90
2017,05,22,03,41,3.20
2017,05,22,03,42,2.70
2017,05,22,03,43,2.30
2017,05,22,03,44,3.40
2017,05,22,03,45,3.00
2017,05,22,03,46,3.00
2017,05,22,03,47,3.40
2017,05,22,03,48,3.90
2017,05,22,03,49,3.20
2017,05,22,03,50,1.60
2017,05,22,03,51,2.40
2017,05,22,03,52,1.90
2017,05,22,03,53,1.00
2017,05,22,03,54,0.10
2017,05,22,03,55,0.00
2017,05,22,03,56,1.90
2017,05,22,03,57,2.20
2017,05,22,03,58,2.30
2017,05,22,03,59,2.60
2017,05,22,04,00,3.00
2017,05,22,04,01,2.80
2017,05,22,04,02,2.60
2017,05,22,04,03,2.60
2017,05,22,04,04,1.60
2017,05,22,04,05,1.20
2017,05,22,04,06,1.20
2017,05,22,04,07,1.50
2017,05,22,04,08,1.00
2017,05,22,04,09,0.20
2017,05,22,04,10,0.00
2017,05,22,04,11,0.00
2017,05,22,04,12,1.20
2017,05,22,04,13,3.30
2017,05,22,04,14,2.00
2017,05,22,04,15,2.00
2017,05,22,04,16,1.70
2017,05,22,04,17,3.20
2017,05,22,04,18,3.20
2017,05,22,04,19,3.80
2017,05,22,04,20,3.50
2017,05,22,04,21,3.10
2017,05,22,04,22,2.30
2017,05,22,04,23,2.60
2017,05,22,04,24,2.10
2017,05,22,04,25,1.40
2017,05,22,04,26,2.90
2017,05,22,04,27,3.00
2017,05,22,04,28,2.30
2017,05,22,04,29,2.60
2017,05,22,04,30,2.50
2017,05,22,04,31,0.60
2017,05,22,04,32,0.00
2017,05,22,04,33,0.00
2017,05,22,04,34,0.60
2017,05,22,04,35,2.30
2017,05,22,04,36,3.80
2017,05,22,04,37,4.70
2017,05,22,04,38,4.10
2017,05,22,04,39,2.80
2017,05,22,04,40,3.50
2017,05,22,04,41,3.60
2017,05,22,04,42,3.00
2017,05,22,04,43,2.50
2017,05,22,04,44,3.50
2017,05,22,04,45,3.10
2017,05,22,04,46,2.20
2017,05,22,04,47,4.30
2017,05,22,04,48,3.90
2017,05,22,04,49,4.00
2017,05,22,04,50,3.80
2017,05,22,04,51,3.00
2017,05,22,04,52,3.40
2017,05,22,04,53,5.30
2017,05,22,04,54,3.80
2017,05,22,04,55,4.30
2017,05,22,04,56,4.30
2017,05,22,04,57,4.30
2017,05,22,04,58,3.50
2017,05,22,04,59,2.00
2017,05,22,05,00,3.40
2017,05,22,05,01,2.50
2017,05,22,05,02,1.80
2017,05,22,05,03,2.90
2017,05,22,05,04,3.70
2017,05,22,05,05,2.40
2017,05,22,05,06,3.00
2017,05,22,05,07,2.50
2017,05,22,05,08,3.60
2017,05,22,05,09,5.60
2017,05,22,05,10,5.20
2017,05,22,05,11,4.60
2017,05,22,05,12,3.00
2017,05,22,05,13,2.70
2017,05,22,05,14,4.60
2017,05,22,05,15,5.10
2017,05,22,05,16,4.70
2017,05,22,05,17,3.00
2017,05,22,05,18,3.50
2017,05,22,05,19,5.00
2017,05,22,05,20,5.10
2017,05,22,05,21,4.50
2017,05,22,05,22,4.30
2017,05,22,05,23,5.30
2017,05,22,05,24,3.10
2017,05,22,05,25,2.10
2017,05,22,05,26,2.40
2017,05,22,05,27,3.10
2017,05,22,05,28,3.10
2017,05,22,05,29,3.00
2017,05,22,05,30,1.50
2017,05,22,05,31,1.40
2017,05,22,05,32,1.20
2017,05,22,05,33,2.40
2017,05,22,05,34,2.30
2017,05,22,05,35,3.40
2017,05,22,05,36,2.80
2017,05,22,05,37,3.40
2017,05,22,05,38,2.30
2017,05,22,05,39,2.80
2017,05,22,05,40,1.70
2017,05,22,05,41,1.90
2017,05,22,05,42,2.60
2017,05,22,05,43,3.10
2017,05,22,05,44,3.40
2017,05,22,05,45,5.30
2017,05,22,05,46,2.20
2017,05,22,05,47,3.00
2017,05,22,05,48,1.90
2017,05,22,05,49,2.70
2017,05,22,05,50,4.20
2017,05,22,05,51,3.80
2017,05,22,05,52,3.10
2017,05,22,05,53,2.50
2017,05,22,05,54,2.70
2017,05,22,05,55,1.20
2017,05,22,05,56,3.30
2017,05,22,05,57,3.10
2017,05,22,05,58,2.00
2017,05,22,05,59,3.50
2017,05,22,06,00,0.70
2017,05,22,06,01,3.20
2017,05,22,06,02,3.40
2017,05,22,06,03,3.40
2017,05,22,06,04,3.40
2017,05,22,06,05,4.00
2017,05,22,06,06,2.90
2017,05,22,06,07,2.30
2017,05,22,06,08,1.10
2017,05,22,06,09,4.30
2017,05,22,06,10,2.30
2017,05,22,06,11,3.10
2017,05,22,06,12,3.40
2017,05,22,06,13,4.40
2017,05,22,06,14,3.30
2017,05,22,06,15,3.20
2017,05,22,06,16,4.40
2017,05,22,06,17,3.50
2017,05,22,06,18,1.30
2017,05,22,06,19,0.60
2017,05,22,06,20,2.00
2017,05,22,06,21,3.60
2017,05,22,06,22,1.40
2017,05,22,06,23,2.10
2017,05,22,06,24,2.30
2017,05,22,06,25,2.60
2017,05,22,06,26,3.00
2017,05,22,06,27,2.40
2017,05,22,06,28,2.30
2017,05,22,06,29,2.20
2017,05,22,06,30,3.30
2017,05,22,06,31,2.70
2017,05,22,06,32,2.70
2017,05,22,06,33,1.40
2017,05,22,06,34,1.90
2017,05,22,06,35,2.00
2017,05,22,06,36,3.00
2017,05,22,06,37,2.40
2017,05,22,06,38,2.30
2017,05,22,06,39,3.70
2017,05,22,06,40,2.10
2017,05,22,06,41,3.00
2017,05,22,06,42,1.90
2017,05,22,06,43,1.10
2017,05,22,06,44,1.50
2017,05,22,06,45,2.10
2017,05,22,06,46,2.10
2017,05,22,06,47,2.50
2017,05,22,06,48,0.00
2017,05,22,06,49,1.00
2017,05,22,06,50,2.70
2017,05,22,06,51,0.30
2017,05,22,06,52,0.30
2017,05,22,06,53,1.30
2017,05,22,06,54,0.60
2017,05,22,06,55,0.20
2017,05,22,06,56,2.40
2017,05,22,06,57,0.40
2017,05,22,06,58,0.00
2017,05,22,06,59,1.00
2017,05,22,07,00,2.00
2017,05,22,07,01,2.80
2017,05,22,07,02,1.10
2017,05,22,07,03,0.70
2017,05,22,07,04,0.50
2017,05,22,07,05,1.60
2017,05,22,07,06,1.10
2017,05,22,07,07,0.20
2017,05,22,07,08,0.90
2017,05,22,07,09,0.00
2017,05,22,07,10,0.20
2017,05,22,07,11,0.30
2017,05,22,07,12,0.20
2017,05,22,07,13,0.00
2017,05,22,07,14,0.00
2017,05,22,07,15,0.10
2017,05,22,07,16,0.20
2017,05,22,07,17,0.10
2017,05,22,07,18,0.00
2017,05,22,07,19,0.20
2017,05,22,07,20,0.00
2017,05,22,07,21,0.10
2017,05,22,07,22,0.10
2017,05,22,07,23,0.80
2017,05,22,07,24,1.10
2017,05,22,07,25,0.20
2017,05,22,07,26,0.10
2017,05,22,07,27,1.00
2017,05,22,07,28,1.40
2017,05,22,07,29,0.10
2017,05,22,07,30,0.10
2017,05,22,07,31,0.60
2017,05,22,07,32,0.90
2017,05,22,07,33,0.60
2017,05,22,07,34,0.10
2017,05,22,07,35,1.60
2017,05,22,07,36,0.00
2017,05,22,07,37,0.90
2017,05,22,07,38,1.00
2017,05,22,07,39,0.00
2017,05,22,07,40,0.10
2017,05,22,07,41,0.20
2017,05,22,07,42,0.60
2017,05,22,07,43,0.50
2017,05,22,07,44,0.40
2017,05,22,07,45,0.10
2017,05,22,07,46,1.40
2017,05,22,07,47,0.00
2017,05,22,07,48,0.30
2017,05,22,07,49,0.60
2017,05,22,07,50,0.40
2017,05,22,07,51,0.40
2017,05,22,07,52,0.10
2017,05,22,07,53,0.00
2017,05,22,07,54,0.60
2017,05,22,07,55,0.60
2017,05,22,07,56,0.00
2017,05,22,07,57,0.00
2017,05,22,07,58,0.00
2017,05,22,07,59,0.00
2017,05,22,08,00,0.10
2017,05,22,08,01,0.00
2017,05,22,08,02,0.00
2017,05,22,08,03,0.00
2017,05,22,08,04,0.20
2017,05,22,08,05,0.20
2017,05,22,08,06,0.20
2017,05,22,08,07,1.00
2017,05,22,08,08,1.50
2017,05,22,08,09,0.60
2017,05,22,08,10,0.30
2017,05,22,08,11,0.00
2017,05,22,08,12,0.00
2017,05,22,08,13,0.00
2017,05,22,08,14,0.60
2017,05,22,08,15,2.50
2017,05,22,08,16,1.30
2017,05,22,08,17,0.10
2017,05,22,08,18,0.20
2017,05,22,08,19,1.00
2017,05,22,08,20,0.30
2017,05,22,08,21,0.00
2017,05,22,08,22,0.30
2017,05,22,08,23,0.00
2017,05,22,08,24,0.00
2017,05,22,08,25,0.20
2017,05,22,08,26,1.60
2017,05,22,08,27,0.10
2017,05,22,08,28,2.40
2017,05,22,08,29,0.60
2017,05,22,08,30,0.40
2017,05,22,08,31,0.10
2017,05,22,08,32,1.50
2017,05,22,08,33,0.80
2017,05,22,08,34,0.60
2017,05,22,08,35,1.80
2017,05,22,08,36,1.00
2017,05,22,08,37,0.80
2017,05,22,08,38,0.40
2017,05,22,08,39,1.10
2017,05,22,08,40,1.60
2017,05,22,08,41,1.00
2017,05,22,08,42,0.30
2017,05,22,08,43,2.60
2017,05,22,08,44,1.50
2017,05,22,08,45,1.80
2017,05,22,08,46,1.30
2017,05,22,08,47,1.20
2017,05,22,08,48,0.70
2017,05,22,08,49,0.40
2017,05,22,08,50,0.20
2017,05,22,08,51,2.90
2017,05,22,08,52,0.60
2017,05,22,08,53,1.60
2017,05,22,08,54,1.70
2017,05,22,08,55,1.60
2017,05,22,08,56,3.40
2017,05,22,08,57,4.60
2017,05,22,08,58,2.20
2017,05,22,08,59,0.30
2017,05,22,09,00,1.90
2017,05,22,09,01,2.40
2017,05,22,09,02,1.90
2017,05,22,09,03,1.30
2017,05,22,09,04,2.50
2017,05,22,09,05,0.60
2017,05,22,09,06,0.40
2017,05,22,09,07,0.50
2017,05,22,09,08,5.20
2017,05,22,09,09,4.10
2017,05,22,09,10,5.60
2017,05,22,09,11,3.20
2017,05,22,09,12,1.00
2017,05,22,09,13,2.30
2017,05,22,09,14,3.50
2017,05,22,09,15,1.40
2017,05,22,09,16,3.10
2017,05,22,09,17,2.60
2017,05,22,09,18,1.80
2017,05,22,09,19,1.90
2017,05,22,09,20,6.00
2017,05,22,09,21,2.80
2017,05,22,09,22,1.40
2017,05,22,09,23,2.20
2017,05,22,09,24,2.20
2017,05,22,09,25,0.30
2017,05,22,09,26,0.00
2017,05,22,09,27,0.20
2017,05,22,09,28,0.60
2017,05,22,09,29,1.50
2017,05,22,09,30,3.60
2017,05,22,09,31,4.80
2017,05,22,09,32,2.10
2017,05,22,09,33,3.90
2017,05,22,09,34,3.80
2017,05,22,09,35,3.00
2017,05,22,09,36,1.40
2017,05,22,09,37,1.10
2017,05,22,09,38,0.70
2017,05,22,09,39,1.90
2017,05,22,09,40,5.30
2017,05,22,09,41,2.80
2017,05,22,09,42,0.70
2017,05,22,09,43,2.80
2017,05,22,09,44,2.60
2017,05,22,09,45,2.20
2017,05,22,09,46,1.90
2017,05,22,09,47,0.70
2017,05,22,09,48,1.40
2017,05,22,09,49,0.90
2017,05,22,09,50,0.90
2017,05,22,09,51,3.00
2017,05,22,09,52,1.90
2017,05,22,09,53,2.20
2017,05,22,09,54,1.80
2017,05,22,09,55,1.50
2017,05,22,09,56,2.70
2017,05,22,09,57,2.80
2017,05,22,09,58,1.40
2017,05,22,09,59,2.10
2017,05,22,10,00,2.60
2017,05,22,10,01,2.40
2017,05,22,10,02,2.20
2017,05,22,10,03,3.10
2017,05,22,10,04,5.50
2017,05,22,10,05,2.30
2017,05,22,10,06,2.10
2017,05,22,10,07,1.30
2017,05,22,10,08,3.90
2017,05,22,10,09,3.40
2017,05,22,10,10,2.20
2017,05,22,10,11,2.30
2017,05,22,10,12,0.50
2017,05,22,10,13,4.10
2017,05,22,10,14,1.50
2017,05,22,10,15,3.10
2017,05,22,10,16,3.50
2017,05,22,10,17,2.90
2017,05,22,10,18,2.40
2017,05,22,10,19,1.60
2017,05,22,10,20,3.00
2017,05,22,10,21,3.30
2017,05,22,10,22,0.80
2017,05,22,10,23,0.70
2017,05,22,10,24,1.50
2017,05,22,10,25,0.50
2017,05,22,10,26,0.10
2017,05,22,10,27,0.70
2017,05,22,10,28,1.50
2017,05,22,10,29,2.30
2017,05,22,10,30,2.80
2017,05,22,10,31,1.70
2017,05,22,10,32,1.40
2017,05,22,10,33,1.20
2017,05,22,10,34,1.10
2017,05,22,10,35,1.40
2017,05,22,10,36,1.80
2017,05,22,10,37,1.90
2017,05,22,10,38,0.70
2017,05,22,10,39,1.40
2017,05,22,10,40,5.30
2017,05,22,10,41,1.80
2017,05,22,10,42,0.60
2017,05,22,10,43,0.00
2017,05,22,10,44,0.20
2017,05,22,10,45,2.40
2017,05,22,10,46,4.30
2017,05,22,10,47,2.80
2017,05,22,10,48,0.80
2017,05,22,10,49,1.10
2017,05,22,10,50,0.10
2017,05,22,10,51,1.50
2017,05,22,10,52,0.50
2017,05,22,10,53,0.30
2017,05,22,10,54,1.30
2017,05,22,10,55,1.90
2017,05,22,10,56,3.50
2017,05,22,10,57,3.20
2017,05,22,10,58,1.00
2017,05,22,10,59,1.50
2017,05,22,11,00,1.50
2017,05,22,11,01,2.40
2017,05,22,11,02,2.80
2017,05,22,11,03,1.40
2017,05,22,11,04,0.60
2017,05,22,11,05,0.20
2017,05,22,11,06,1.70
2017,05,22,11,07,1.20
2017,05,22,11,08,2.00
2017,05,22,11,09,2.30
2017,05,22,11,10,0.40
2017,05,22,11,11,0.10
2017,05,22,11,12,0.30
2017,05,22,11,13,0.90
2017,05,22,11,14,1.50
2017,05,22,11,15,0.90
2017,05,22,11,16,3.10
2017,05,22,11,17,1.90
2017,05,22,11,18,0.50
2017,05,22,11,19,2.20
2017,05,22,11,20,1.80
2017,05,22,11,21,1.40
2017,05,22,11,22,1.50
2017,05,22,11,23,1.10
2017,05,22,11,24,1.00
2017,05,22,11,25,0.80
2017,05,22,11,26,1.30
2017,05,22,11,27,1.00
2017,05,22,11,28,1.10
2017,05,22,11,29,2.70
2017,05,22,11,30,2.10
2017,05,22,11,31,0.50
2017,05,22,11,32,1.70
2017,05,22,11,33,3.00
2017,05,22,11,34,4.30
2017,05,22,11,35,2.60
2017,05,22,11,36,2.80
2017,05,22,11,37,0.70
2017,05,22,11,38,1.20
2017,05,22,11,39,0.80
2017,05,22,11,40,0.00
2017,05,22,11,41,0.20
2017,05,22,11,42,3.40
2017,05,22,11,43,1.90
2017,05,22,11,44,3.20
2017,05,22,11,45,4.40
2017,05,22,11,46,2.60
2017,05,22,11,47,3.10
2017,05,22,11,48,2.80
2017,05,22,11,49,3.20
2017,05,22,11,50,1.50
2017,05,22,11,51,2.00
2017,05,22,11,52,1.90
2017,05,22,11,53,1.90
2017,05,22,11,54,1.80
2017,05,22,11,55,1.90
2017,05,22,11,56,1.50
2017,05,22,11,57,0.80
2017,05,22,11,58,1.30
2017,05,22,11,59,2.30
2017,05,22,12,00,0.30
2017,05,22,12,01,0.60
2017,05,22,12,02,1.10
2017,05,22,12,03,3.40
2017,05,22,12,04,1.50
2017,05,22,12,05,1.30
2017,05,22,12,06,0.50
2017,05,22,12,07,0.20
2017,05,22,12,08,0.90
2017,05,22,12,09,1.00
2017,05,22,12,10,0.10
2017,05,22,12,11,1.30
2017,05,22,12,12,2.30
2017,05,22,12,13,1.60
2017,05,22,12,14,1.40
2017,05,22,12,15,1.30
2017,05,22,12,16,1.10
2017,05,22,12,17,1.30
2017,05,22,12,18,0.40
2017,05,22,12,19,1.80
2017,05,22,12,20,1.80
2017,05,22,12,21,0.40
2017,05,22,12,22,1.40
2017,05,22,12,23,0.90
2017,05,22,12,24,0.30
2017,05,22,12,25,0.00
2017,05,22,12,26,0.10
2017,05,22,12,27,0.80
2017,05,22,12,28,2.20
2017,05,22,12,29,1.50
2017,05,22,12,30,0.30
2017,05,22,12,31,3.80
2017,05,22,12,32,4.70
2017,05,22,12,33,0.60
2017,05,22,12,34,2.90
2017,05,22,12,35,3.80
2017,05,22,12,36,3.90
2017,05,22,12,37,2.30
2017,05,22,12,38,2.30
2017,05,22,12,39,1.00
2017,05,22,12,40,2.20
2017,05,22,12,41,1.00
2017,05,22,12,42,2.60
2017,05,22,12,43,2.30
2017,05,22,12,44,3.50
2017,05,22,12,45,1.50
2017,05,22,12,46,0.90
2017,05,22,12,47,0.90
2017,05,22,12,48,0.30
2017,05,22,12,49,1.90
2017,05,22,12,50,2.60
2017,05,22,12,51,0.50
2017,05,22,12,52,2.70
2017,05,22,12,53,3.80
2017,05,22,12,54,1.90
2017,05,22,12,55,1.20
2017,05,22,12,56,1.80
2017,05,22,12,57,2.30
2017,05,22,12,58,1.80
2017,05,22,12,59,2.30
2017,05,22,13,00,2.30
2017,05,22,13,01,2.10
2017,05,22,13,02,0.70
2017,05,22,13,03,2.70
2017,05,22,13,04,3.00
2017,05,22,13,05,4.50
2017,05,22,13,06,4.70
2017,05,22,13,07,3.40
2017,05,22,13,08,1.20
2017,05,22,13,09,3.80
2017,05,22,13,10,2.50
2017,05,22,13,11,1.70
2017,05,22,13,12,5.20
2017,05,22,13,13,3.60
2017,05,22,13,14,2.10
2017,05,22,13,15,3.10
2017,05,22,13,16,1.50
2017,05,22,13,17,3.00
2017,05,22,13,18,3.80
2017,05,22,13,19,3.10
2017,05,22,13,20,2.20
2017,05,22,13,21,5.30
2017,05,22,13,22,3.50
2017,05,22,13,23,5.60
2017,05,22,13,24,3.90
2017,05,22,13,25,4.00
2017,05,22,13,26,2.70
2017,05,22,13,27,2.70
2017,05,22,13,28,1.80
2017,05,22,13,29,0.70
2017,05,22,13,30,2.70
2017,05,22,13,31,4.20
2017,05,22,13,32,3.00
2017,05,22,13,33,2.80
2017,05,22,13,34,0.70
2017,05,22,13,35,2.40
2017,05,22,13,36,2.30
2017,05,22,13,37,2.50
2017,05,22,13,38,1.60
2017,05,22,13,39,1.20
2017,05,22,13,40,4.00
2017,05,22,13,41,0.70
2017,05,22,13,42,1.40
2017,05,22,13,43,0.50
2017,05,22,13,44,3.30
2017,05,22,13,45,1.70
2017,05,22,13,46,1.50
2017,05,22,13,47,1.20
2017,05,22,13,48,3.50
2017,05,22,13,49,5.60
2017,05,22,13,50,8.60
2017,05,22,13,51,5.40
2017,05,22,13,52,4.20
2017,05,22,13,53,4.60
2017,05,22,13,54,3.20
2017,05,22,13,55,3.90
2017,05,22,13,56,0.90
2017,05,22,13,57,1.00
2017,05,22,13,58,2.50
2017,05,22,13,59,1.60
2017,05,22,14,00,0.80
2017,05,22,14,01,2.10
2017,05,22,14,02,0.80
2017,05,22,14,03,1.00
2017,05,22,14,04,2.30
2017,05,22,14,05,1.10
2017,05,22,14,06,1.70
2017,05,22,14,07,2.50
2017,05,22,14,08,1.40
2017,05,22,14,09,2.30
2017,05,22,14,10,2.30
2017,05,22,14,11,0.40
2017,05,22,14,12,1.50
2017,05,22,14,13,1.10
2017,05,22,14,14,0.80
2017,05,22,14,15,2.00
2017,05,22,14,16,3.00
2017,05,22,14,17,4.60
2017,05,22,14,18,1.90
2017,05,22,14,19,3.30
2017,05,22,14,20,2.50
2017,05,22,14,21,2.50
2017,05,22,14,22,2.50
2017,05,22,14,23,1.80
2017,05,22,14,24,0.80
2017,05,22,14,25,0.90
2017,05,22,14,26,1.50
2017,05,22,14,27,0.60
2017,05,22,14,28,0.20
2017,05,22,14,29,1.00
2017,05,22,14,30,2.10
2017,05,22,14,31,1.50
2017,05,22,14,32,1.40
2017,05,22,14,33,1.00
2017,05,22,14,34,0.40
2017,05,22,14,35,2.30
2017,05,22,14,36,2.30
2017,05,22,14,37,3.10
2017,05,22,14,38,2.60
2017,05,22,14,39,1.20
2017,05,22,14,40,1.20
2017,05,22,14,41,0.80
2017,05,22,14,42,2.00
2017,05,22,14,43,2.40
2017,05,22,14,44,1.10
2017,05,22,14,45,2.10
2017,05,22,14,46,4.10
2017,05,22,14,47,6.40
2017,05,22,14,48,3.60
2017,05,22,14,49,3.00
2017,05,22,14,50,0.50
2017,05,22,14,51,5.00
2017,05,22,14,52,7.50
2017,05,22,14,53,2.30
2017,05,22,14,54,2.30
2017,05,22,14,55,3.70
2017,05,22,14,56,2.30
2017,05,22,14,57,0.60
2017,05,22,14,58,3.10
2017,05,22,14,59,1.60
2017,05,22,15,00,4.10
2017,05,22,15,01,1.20
2017,05,22,15,02,1.20
2017,05,22,15,03,5.10
2017,05,22,15,04,4.70
2017,05,22,15,05,2.50
2017,05,22,15,06,0.50
2017,05,22,15,07,2.30
2017,05,22,15,08,1.40
2017,05,22,15,09,1.00
2017,05,22,15,10,4.70
2017,05,22,15,11,1.50
2017,05,22,15,12,0.20
2017,05,22,15,13,0.80
2017,05,22,15,14,2.70
2017,05,22,15,15,1.00
2017,05,22,15,16,3.60
2017,05,22,15,17,4.10
2017,05,22,15,18,2.60
2017,05,22,15,19,2.00
2017,05,22,15,20,1.30
2017,05,22,15,21,2.20
2017,05,22,15,22,0.70
2017,05,22,15,23,0.50
2017,05,22,15,24,0.60
2017,05,22,15,25,2.50
2017,05,22,15,26,1.40
2017,05,22,15,27,2.30
2017,05,22,15,28,1.20
2017,05,22,15,29,0.60
2017,05,22,15,30,0.20
2017,05,22,15,31,1.10
2017,05,22,15,32,0.80
2017,05,22,15,33,3.50
2017,05,22,15,34,3.10
2017,05,22,15,35,5.00
2017,05,22,15,36,3.50
2017,05,22,15,37,3.00
2017,05,22,15,38,2.10
2017,05,22,15,39,0.80
2017,05,22,15,40,0.20
2017,05,22,15,41,0.60
2017,05,22,15,42,1.90
2017,05,22,15,43,3.10
2017,05,22,15,44,3.30
2017,05,22,15,45,1.00
2017,05,22,15,46,1.50
2017,05,22,15,47,3.60
2017,05,22,15,48,2.60
2017,05,22,15,49,5.30
2017,05,22,15,50,6.70
2017,05,22,15,51,5.50
2017,05,22,15,52,2.50
2017,05,22,15,53,3.50
2017,05,22,15,54,5.30
2017,05,22,15,55,3.90
2017,05,22,15,56,4.90
2017,05,22,15,57,5.20
2017,05,22,15,58,6.70
2017,05,22,15,59,6.70
2017,05,22,16,00,6.00
2017,05,22,16,01,4.80
2017,05,22,16,02,5.80
2017,05,22,16,03,6.30
2017,05,22,16,04,6.40
2017,05,22,16,05,6.90
2017,05,22,16,06,6.60
2017,05,22,16,07,6.10
2017,05,22,16,08,5.10
2017,05,22,16,09,4.30
2017,05,22,16,10,6.80
2017,05,22,16,11,6.10
2017,05,22,16,12,4.90
2017,05,22,16,13,5.90
2017,05,22,16,14,6.30
2017,05,22,16,15,6.10
2017,05,22,16,16,5.10
2017,05,22,16,17,6.00
2017,05,22,16,18,5.30
2017,05,22,16,19,6.80
2017,05,22,16,20,5.30
2017,05,22,16,21,5.10
2017,05,22,16,22,3.50
2017,05,22,16,23,0.80
2017,05,22,16,24,5.20
2017,05,22,16,25,3.90
2017,05,22,16,26,7.30
2017,05,22,16,27,7.00
2017,05,22,16,28,5.30
2017,05,22,16,29,5.20
2017,05,22,16,30,5.80
2017,05,22,16,31,6.10
2017,05,22,16,32,4.60
2017,05,22,16,33,6.80
2017,05,22,16,34,2.90
2017,05,22,16,35,2.60
2017,05,22,16,36,3.70
2017,05,22,16,37,3.40
2017,05,22,16,38,4.40
2017,05,22,16,39,0.60
2017,05,22,16,40,3.40
2017,05,22,16,41,4.70
2017,05,22,16,42,5.10
2017,05,22,16,43,0.70
2017,05,22,16,44,0.30
2017,05,22,16,45,2.10
2017,05,22,16,46,4.20
2017,05,22,16,47,3.40
2017,05,22,16,48,3.00
2017,05,22,16,49,1.30
2017,05,22,16,50,1.00
2017,05,22,16,51,0.50
2017,05,22,16,52,1.00
2017,05,22,16,53,1.80
2017,05,22,16,54,0.40
2017,05,22,16,55,2.30
2017,05,22,16,56,0.60
2017,05,22,16,57,0.50
2017,05,22,16,58,3.10
2017,05,22,16,59,1.30
2017,05,22,17,00,1.30
2017,05,22,17,01,0.50
2017,05,22,17,02,2.00
2017,05,22,17,03,0.10
2017,05,22,17,04,0.10
2017,05,22,17,05,0.30
2017,05,22,17,06,2.30
2017,05,22,17,07,3.00
2017,05,22,17,08,4.40
2017,05,22,17,09,0.40
2017,05,22,17,10,0.90
2017,05,22,17,11,2.60
2017,05,22,17,12,0.50
2017,05,22,17,13,1.40
2017,05,22,17,14,0.80
2017,05,22,17,15,4.70
2017,05,22,17,16,4.90
2017,05,22,17,17,4.50
2017,05,22,17,18,2.30
2017,05,22,17,19,3.10
2017,05,22,17,20,2.20
2017,05,22,17,21,5.90
2017,05,22,17,22,2.00
2017,05,22,17,23,1.00
2017,05,22,17,24,1.50
2017,05,22,17,25,1.30
2017,05,22,17,26,2.00
2017,05,22,17,27,0.90
2017,05,22,17,28,1.60
2017,05,22,17,29,2.00
2017,05,22,17,30,1.50
2017,05,22,17,31,0.60
2017,05,22,17,32,3.20
2017,05,22,17,33,2.20
2017,05,22,17,34,3.50
2017,05,22,17,35,1.90
2017,05,22,17,36,3.00
2017,05,22,17,37,3.80
2017,05,22,17,38,2.10
2017,05,22,17,39,1.60
2017,05,22,17,40,1.60
2017,05,22,17,41,1.30
2017,05,22,17,42,2.60
2017,05,22,17,43,3.30
2017,05,22,17,44,1.80
2017,05,22,17,45,2.60
2017,05,22,17,46,1.40
2017,05,22,17,47,1.50
2017,05,22,17,48,1.40
2017,05,22,17,49,3.00
2017,05,22,17,50,1.70
2017,05,22,17,51,1.20
2017,05,22,17,52,1.00
2017,05,22,17,53,0.40
2017,05,22,17,54,0.10
2017,05,22,17,55,0.70
2017,05,22,17,56,0.20
2017,05,22,17,57,0.10
2017,05,22,17,58,0.60
2017,05,22,17,59,0.50
2017,05,22,18,00,0.30
2017,05,22,18,01,0.60
2017,05,22,18,02,0.20
2017,05,22,18,03,1.10
2017,05,22,18,04,1.70
2017,05,22,18,05,0.30
2017,05,22,18,06,0.70